Regional Weather Roundup
Issued by NWS Wakefield, VA

Home | Current Version | Previous Version | Text Only | Print | Product List | Glossary On
Versions: 1 2 3 4 5 6 7 8 9 10 11 12 13 14 15 16 17 18 19 20 21 22 23 24 25 26 27 28 29 30 31 32 33 34 35 36 37 38 39 40 41 42 43 44 45 46 47 48 49 50
000
ASUS41 KAKQ 270815
RWRAKQ

REGIONAL WEATHER ROUNDUP
NATIONAL WEATHER SERVICE WAKEFIELD VA
400 AM EDT TUE SEP 27 2016

Note: "fair" indicates few or no clouds below 12,000 feet with no
significant weather and/or obstructions to visibility. * = Denotes
station may not report precipitation (e.g., rain,snow,etc.),
thunder or fog.

VAZ042-051-052>054-056-270900-
NORTHERN VIRGINIA

CITY           SKY/WX    TMP DP  RH WIND       PRES   REMARKS
WASH NATIONAL  LGT RAIN  67  67 100 SW3       29.95F FOG
DULLES         LGT RAIN  65  63  93 SW3       29.95F
FORT BELVOIR   LGT RAIN  66  64  94 N2        29.94S FOG
QUANTICO       RAIN      67  65  93 W5        29.95F FOG
FREDERICKSBRG* RAIN      67  67 100 W3        29.94F
STAFFORD*      HVY RAIN  65  65 100 CALM      29.99F
WARRENTON      HVY RAIN  66  62  85 CALM      29.95S
CULPEPER*      RAIN      66  66  99 CALM      29.96F
MANASSAS*      CLOUDY    66  66 100 CALM      29.96S
LEESBURG*      CLOUDY    64  64 100 CALM      29.96F FOG
WINCHESTER     FOG       63  63 100 CALM      29.97S VSB 1
FRONT ROYAL*   CLOUDY    63  63 100 S3        29.95F
LURAY*         CLOUDY   N/A N/A N/A CALM      29.96F HAZE
$$

VAZ048-049-060>072-079>083-270900-
CENTRAL AND SOUTH CENTRAL VIRGINIA

CITY           SKY/WX    TMP DP  RH WIND       PRES   REMARKS
RICHMOND       LGT RAIN  67  65  93 SW6       29.96F
CHESTERFIELD*  CLOUDY    68  54  60 W3        29.98F
PETERSBURG*    CLOUDY   N/A N/A N/A CALM      29.97F
HANOVER        LGT RAIN  68  65  90 SW6       29.98S
TAPPAHANNOCK*  DRIZZLE   67  67 100 SE3       29.97S
QUINTON*       CLOUDY    67  66  97 CALM      29.96S
CHARLOTTSVILLE CLOUDY    67  65  93 CALM      29.95F FOG
GORDONSVILLE*  NOT AVBL
ORANGE*        RAIN      66  66 100 CALM      29.97F
LOUISA*        RAIN      70  68  94 CALM      29.94F
BUMPASS*       CLOUDY    65  65 100 CALM      29.96F
FARMVILLE*     CLOUDY    68  67  99 CALM      29.96F FOG
CREWE*         CLOUDY    67  67 100 CALM      29.97S
FORT PICKETT*  PTSUNNY   67  66  97 SW3       29.97F
CHASE CITY*    FAIR      67  66  94 CALM      29.97F
CLARKSVILLE*   FAIR      66  66 100 CALM      29.97F
SOUTH HILL*    CLOUDY    67  67  99 S5        30.03F
LAWRENCEVILLE* FAIR      68  67  97 CALM      29.97F
EMPORIA*       CLOUDY    68  64  88 S3        29.98F
$$

VAZ088>098-270900-
SOUTHEAST VIRGINIA

CITY           SKY/WX    TMP DP  RH WIND       PRES   REMARKS
NORFOLK        CLOUDY    72  66  81 S14       29.96F
VIRGINIA BEACH CLOUDY    72  64  76 S8        29.96F
NORFOLK NAVAL  CLOUDY    73  66  78 S8        29.97F
WEST POINT*    CLOUDY    70  65  84 SW3       29.97F
SALUDA*        CLOUDY    68  68  99 SW3       29.95F
NEWPORT NEWS   CLOUDY    72  67  84 SW13      29.96F
LANGLEY AFB    CLOUDY    73  67  81 SW8       29.95F
FORT EUSTIS    CLOUDY    72  67  84 VRB6      29.94F
WILLIAMSBURG*  CLOUDY    72  66  83 S5        29.97F
HR EXEC AP*    PTSUNNY   72  64  78 SW6       29.99F
FRANKLIN*      CLOUDY    69  66  89 S5        29.98F
US460-WAKEFLD  MOCLDY    71  65  81 S5        29.96F
$$

VAZ020-022-025-037-045-270900-
WEST CENTRAL AND SOUTHWEST VIRGINIA

CITY           SKY/WX    TMP DP  RH WIND       PRES   REMARKS
STAUNTON*      MOCLDY    62  62  99 CALM      29.99F FOG
WAYNESBORO*    CLOUDY    64  63  95 SW5       29.99S
HOT SPRINGS VA NOT AVBL
LYNCHBURG      LGT RAIN  65  65 100 CALM      29.99F
DANVILLE       MOCLDY    67  66  97 SW6       29.98F
SOUTH BOSTON*  CLOUDY    67  66  95 SW3       29.97F
MARTINSVILLE   CLOUDY    67  65  96 SW3       30.01F
ROANOKE        HVY RAIN  67  67 100 CALM      30.01F FOG
BLACKSBURG     LGT RAIN  64  64 100 CALM      30.06F
DUBLIN*        CLOUDY    66  66 100 CALM      30.04F
MARION*        CLOUDY    66  63  90 W3        30.06F
HILLSVILLE*    CLOUDY    63  63 100 SW3       30.04F
RICHLANDS*     CLOUDY    61  61 100 N3        30.06F FOG
WISE*          LGT RAIN  61  61 100 N3        30.08F
ABINGDON*      CLOUDY    68  67  99 CALM      30.03F FOG
$$

MDZ021>025-VAZ099-100-270900-
SOUTHERN MARYLAND AND THE DELMARVA PENINSULA

CITY           SKY/WX    TMP DP  RH WIND       PRES   REMARKS
PATUXENT RIVER CLOUDY    68  64  87 SW9       29.94F
BAY BRIDGE APT CLOUDY    68  64  88 MISG      29.94F
LEONARDTOWN    CLOUDY    66  63  88 SW8       29.96F
DOVER          CLOUDY    68  68 100 SW12      29.92S
GEORGETOWN     LGT RAIN  69  67  93 SW7       29.95F
EASTON         NOT AVBL
CAMBRIDGE      CLOUDY    68  64  88 CALM      29.94F
SALISBURY      CLOUDY    69  68  96 SW5       29.95F
OCEAN CITY     CLOUDY    72  68  87 SW8       29.95F
WALLOPS ISLAND CLOUDY    72  69  90 SW8       29.96F
ACCOMACK*      LGT RAIN  71  66  83 S6        29.96S
$$

NCZ012>017-030>032-270900-
NORTH CENTRAL AND EASTERN NORTH CAROLINA

CITY           SKY/WX    TMP DP  RH WIND       PRES   REMARKS
ROANOKE RAPIDS FAIR      68  64  88 CALM      29.98F
RALEIGH        CLOUDY    68  67  96 S6        29.98F
ELIZABETH CITY CLOUDY    71  65  81 CALM      29.99F
AHOSKIE*       CLOUDY    69  67  93 CALM      29.98F
EDENTON*       CLOUDY    74  66  75 S5        29.99F
CURRITUCK*     CLOUDY    72  66  79 SW5       29.99F
KILL DEVIL HLS CLOUDY    75  71  86 S6        29.98F
MANTEO         CLOUDY    76  68  75 S14       30.00F
CAPE HATTERAS  CLOUDY    77  65  66 S14G21    29.99F
TARBORO*       CLOUDY    70  67  91 CALM      29.99F
GOLDSBORO      CLOUDY    70  70 100 CALM      29.97F
WASHINGTON     CLOUDY    68  67  96 CALM      29.99F
GREENVILLE     CLOUDY    70  70 100 CALM      30.00F
NEW BERN       CLOUDY    69  66  90 CALM      29.99F
WILMINGTON     CLOUDY    71  68  90 CALM      29.97F
$$

VAZ048-270900-
ELSEWHERE

CITY           SKY/WX    TMP DP  RH WIND       PRES   REMARKS
HARRISBURG PA  CLOUDY    64  63  96 NW6       29.93S FOG
BALTIMORE      LGT RAIN  65  64  97 SW5       29.93F
ANNAPOLIS      HVY RAIN  67  65  93 W3        29.93F FOG
ANDREWS AFB    LGT RAIN  66  64  94 SW6       29.94S
PHILADELPHIA   CLOUDY    69  64  84 SW13      29.92F
HENDERSON NC   CLOUDY    65  64  93 CALM      29.98F
GREENSBORO     CLOUDY    66  66 100 W5        29.99F
ROCKY MOUNT    CLOUDY    69  68  96 S3        29.98F
$$

VAZ100-270900-
MARINE

STATION/POSITION TIME  TEMP    WIND        PRES    WAVE   SWELL
                       AIR SEA DIR/SP/G            HT/PER HT/PER
                 (UTC) (F)     (DEG/KT/KT) (MB)    (FT/S) (FT/S)
BRANDYWINE LGT   0700   71     220/ 20/ 24   N/A
CAPE MAY NJ      0700   72 72  220/ 14/ 21 1013.3F
LEWES DE         0700   70 72  220/  8/ 16 1013.8F
OCEAN-CITY-INLET 0700   72 72  230/  8/ 11 1014.7F
WACHAPREAGUE VA  0700   73 74  190/  9/ 13 1014.8F
THOMAS POINT MD  0800   67 74  270/ 10/ 11 1015.2F
GOOSES REEF MD   0800   70 75  270/ 10/ 12 1014.4F   1/ 3
COVE POINT MD    0700   68     240/ 11/ 14 1014.8S
SOLOMONS ISLAND  0700   70 76  230/  8/ 10   N/A
BISHOPS HEAD MD  0700   71 71  220/ 10/ 12 1014.7F
PINEY POINT MD   0700          240/  7/  9   N/A
POTOMAC MD       0800   71 75  240/ 10/ 14 1013.2F   1/ 2
CAMBRIDGE MD     0700   69 74  200/  4/  7 1013.4F
LEWISETTA VA     0700   69 74  220/  6/  7 1014.1F
RAPPAHANNOCK LGT 0700          200/ 19/ 20 1015.0F
STINGRAY PT      0700   73 76  160/ 12/ 14 1014.8F   1/ 3
YORK RVR RNG VA  0700   74     230/ 15/ 16 1014.2F
YORKTOWN VA      0700   73 76  210/  9/ 16 1014.4F
JAMESTOWN VA     0800   72 76  200/  8/ 10   N/A     0
DOMINION TERM VA 0700   73     210/ 12/ 16 1014.9F
KIPTOPEKE VA     0700      75  200/ 14/ 19   N/A
CHES BAY BRIDGE  0700   73 76  170/ 12/ 15 1014.8F
CAPE HENRY VA    0700   73     180/ 10/ 14   N/A
WILLOUBY STN VA  0700   74     210/ 13/ 15   N/A
CAPE HENRY BUOY  0712      76                N/A     3/ 5
1ST LANDING BUOY 0800   74 76  230/ 16/ 19 1014.3F   2/ 3
CAPE CHARLES BUO 0656      76                N/A     3/ 4
OFFSHORE WE BUOY 0721      75                N/A     3/ 4
64NM E OF VA BCH 0750   75 74  180/ 16/ 17 1015.0F   3/ 5   2/13
DUCK PIER NC     0700   76 76  190/ 12/ 13 1015.4F
44056 DUCK FRF   0711      76                N/A     3/ 8   2/14
OREGON INLET NC  0700   76 76  160/  9/ 10 1016.1F
HATTERAS NC      0700   78 78  150/ 10/ 13 1015.9F
DIAMOND SHLS NC  0750   79 85  170/ 12/ 16 1015.5F   4/ 5   3/ 8
CAPE LOOKOUT NC  0800   78     130/ 11/ 12 1014.7F
$$



USA.gov is the U.S. government's official web portal to all federal, state and local government web resources and services.